Location: Newark
(12.4436°N, 0.6167°W)
Time: 17:56:11
(UTC+00:00)

Vanguard 1 - Pass Details

Date: 11 December 2019
Orbit: 651 x 3832 km, 34.2° (Epoch: 20 January)

Event Time Altitude Azimuth Distance (km) Brightness Sun altitude
Rises 10:38:14 0° 305° (NW) 6,622 13.9 49.8°
Reaches altitude 10° 10:43:25 10° 308° (NW) 5,099 13.5 50.4°
Maximum altitude 10:56:21 68° 29° (NNE) 1,572 11.7 51.7°
Drops below altitude 10° 11:03:11 10° 112° (ESE) 2,820 12.9 52.3°
Sets 11:05:15 0° 115° (ESE) 3,548 13.3 52.5°
